カタログに戻る

APRIZESAT 3

運用中通信PO
NORAD 35686·PAYLOAD·🇺🇸 United States

打ち上げ Jul 29, 2009 から Baikonur Cosmodrome

Loading…

次のパス (今後24時間)

TLE

最新Source: Space-Track

元期: Sep 13, 2026, 21:40 UTC

1 35686U 09041F   26256.90299819  .00001160  00000-0  10415-3 0  9992
2 35686  98.2180  54.4580 0062216 133.5489 227.0923 14.96449116929644

AllMySatでAPRIZESAT 3をリアルタイム追跡

Download on the App Store